This is the latest recevied weather packets stored in our database for station/object M0HPP-13. If no packets are shown the sender has not sent any weather packets the latest 10 day(s).
| Time | Temp. | Humidity | Pressure | Rain* | Wind** | Luminosity | Snow |
|---|---|---|---|---|---|---|---|
| 1777735219 | 7.78° C | 98% | 1015.2 hPa | 0.25 mm | - | 39 W/m² | - |
| 1777734619 | 7.78° C | 99% | 1015.3 hPa | 0.25 mm | - | 44 W/m² | - |
| 1777734019 | 7.78° C | 99% | 1015.2 hPa | 0.25 mm | - | 44 W/m² | - |
| 1777733419 | 7.78° C | 99% | 1015.1 hPa | 0.25 mm | - | 46 W/m² | - |
| 1777732819 | 7.78° C | 99% | 1015.1 hPa | 0.25 mm | - | 49 W/m² | - |
| 1777732219 | 7.78° C | 99% | 1015.1 hPa | 0.25 mm | - | 41 W/m² | - |
| 1777731619 | 7.78° C | 99% | 1015.1 hPa | 0.25 mm | - | 50 W/m² | - |
| 1777731020 | 7.78° C | 99% | 1015 hPa | 0.25 mm | - | 62 W/m² | - |
| 1777730419 | 7.78° C | 99% | 1015 hPa | 0.25 mm | - | 47 W/m² | - |
| 1777729819 | 7.78° C | 99% | 1014.9 hPa | 0.25 mm | - | 40 W/m² | - |
| 1777729219 | 7.78° C | 99% | 1014.8 hPa | 0.51 mm | - | 39 W/m² | - |
| 1777728619 | 7.78° C | 99% | 1014.7 hPa | 0.76 mm | - | 39 W/m² | - |
| 1777728019 | 7.78° C | 99% | 1014.6 hPa | 1.02 mm | - | 48 W/m² | - |
| 1777727419 | 7.78° C | 99% | 1014.6 hPa | 1.02 mm | - | 58 W/m² | - |
| 1777726819 | 7.78° C | 99% | 1014.7 hPa | 1.02 mm | - | 70 W/m² | - |
| 1777726219 | 7.78° C | 99% | 1014.7 hPa | 0.76 mm | - | 59 W/m² | - |
| 1777725619 | 7.78° C | 99% | 1014.7 hPa | 0.51 mm | - | 57 W/m² | - |
| 1777725019 | 7.78° C | 99% | 1014.6 hPa | 0.51 mm | - | 63 W/m² | - |
| 1777724419 | 8.33° C | 99% | 1014.7 hPa | 0.25 mm | - | 57 W/m² | - |
| 1777723819 | 8.33° C | 98% | 1014.7 hPa | 0 mm | - | 29 W/m² | - |
| 1777723219 | 8.33° C | 97% | 1014.6 hPa | 0 mm | - | 29 W/m² | - |
| 1777722619 | 8.33° C | 97% | 1014.6 hPa | 0 mm | - | 23 W/m² | - |
| 1777722019 | 8.33° C | 97% | 1014.5 hPa | 0 mm | - | 18 W/m² | - |
| 1777721419 | 8.89° C | 96% | 1014.5 hPa | 0 mm | - | 26 W/m² | - |
| 1777720819 | 8.89° C | 95% | 1014.3 hPa | 0 mm | - | 37 W/m² | - |
* Rain latest hour (hover to see other rain measurements)
** Current wind speed in m/s (hover to see current wind gust speed)